GW5899 Weather Reports


time (UTC)temp
C
wind
direction
speed
KPH
gust
KPH
rain 1hr
cm
rain 24hr
cm
rain mn
cm
humidity
%
barometer
mb
20260504050514 11 235 6.4 6.4 0.00 0.00 0.00 54 1007.5
20260504050011 11 218 3.2 3.2 0.00 0.00 0.00 54 1007.5
20260504045508 11 233 1.6 3.2 0.00 0.00 0.00 54 1007.5
20260504045003 12 229 4.8 4.8 0.00 0.00 0.00 52 1007.5
20260504044500 12 223 6.4 6.4 0.00 0.00 0.00 52 1007.7
20260504043957 12 223 6.4 9.7 0.00 0.00 0.00 51 1007.8
20260504043454 12 217 6.4 6.4 0.00 0.00 0.00 49 1007.5
20260504042952 12 234 8.0 11.3 0.00 0.00 0.00 50 1007.6
20260504042448 13 229 6.4 6.4 0.00 0.00 0.00 51 1007.7
20260504041945 13 223 9.7 12.9 0.00 0.00 0.00 49 1007.6
20260504041441 13 214 8.0 11.3 0.00 0.00 0.00 48 1007.6
20260504040937 12 213 8.0 9.7 0.00 0.00 0.00 50 1007.5
20260504040435 12 228 6.4 9.7 0.00 0.00 0.00 51 1007.6
20260504035931 12 224 3.2 4.8 0.00 0.00 0.00 51 1007.6
20260504035429 13 209 4.8 6.4 0.00 0.00 0.00 50 1007.5
20260504034925 13 230 9.7 12.9 0.00 0.00 0.00 48 1007.6
20260504034423 13 240 8.0 9.7 0.00 0.00 0.00 50 1007.5
20260504033920 13 232 11.3 12.9 0.00 0.00 0.00 48 1007.5
20260504033417 13 231 12.9 17.7 0.00 0.00 0.00 49 1007.6
20260504032914 12 220 8.0 9.7 0.00 0.00 0.00 51 1007.8
20260504032411 12 249 6.4 6.4 0.00 0.00 0.00 53 1007.6
20260504031908 12 234 8.0 9.7 0.00 0.00 0.00 51 1007.6
20260504031405 12 233 4.8 4.8 0.00 0.00 0.00 52 1007.6
20260504030901 12 228 6.4 6.4 0.00 0.00 0.00 52 1007.8
20260504030359 12 230 9.7 11.3 0.00 0.00 0.00 50 1007.6
20260504025854 12 240 6.4 9.7 0.00 0.00 0.00 52 1007.6
20260504025352 12 207 6.4 11.3 0.00 0.00 0.00 53 1007.6
20260504024848 12 213 8.0 11.3 0.00 0.00 0.00 52 1007.7
20260504024344 12 208 6.4 6.4 0.00 0.00 0.00 54 1007.8
20260504023842 12 234 4.8 4.8 0.00 0.00 0.00 55 1007.9
20260504023339 12 235 8.0 9.7 0.00 0.00 0.00 53 1008.0
20260504022834 12 248 6.4 6.4 0.00 0.00 0.00 54 1008.1
20260504022331 12 235 9.7 12.9 0.00 0.00 0.00 55 1008.0
20260504021827 12 220 6.4 9.7 0.00 0.00 0.00 58 1008.0
20260504021325 11 236 4.8 6.4 0.00 0.00 0.00 61 1008.1
20260504020822 11 226 6.4 6.4 0.00 0.00 0.00 62 1008.0
20260504020319 11 236 6.4 9.7 0.00 0.00 0.00 63 1008.0
20260504015815 11 232 3.2 4.8 0.00 0.00 0.00 67 1007.9
20260504015311 11 233 3.2 3.2 0.00 0.00 0.00 69 1008.0
20260504014807 11 242 6.4 6.4 0.00 0.00 0.00 69 1008.1
20260504014303 11 242 3.2 3.2 0.00 0.00 0.00 71 1008.0
20260504013801 10 229 4.8 4.8 0.00 0.00 0.00 72 1008.2
20260504013259 10 219 6.4 6.4 0.00 0.00 0.00 73 1008.1
20260504012755 10 240 3.2 3.2 0.00 0.00 0.00 79 1008.1
20260504012253 10 224 1.6 3.2 0.00 0.00 0.00 80 1008.3
20260504011750 10 199 4.8 4.8 0.00 0.00 0.00 79 1008.4
20260504011246 10 191 3.2 3.2 0.00 0.00 0.00 85 1008.6
20260504010742 10 242 0.0 0.0 0.00 0.00 0.00 84 1008.8
20260504010238 10 236 1.6 1.6 0.00 0.00 0.00 84 1008.7
20260504005735 10 233 1.6 3.2 0.00 0.00 0.00 83 1008.4
20260504005232 10 243 1.6 1.6 0.00 0.00 0.00 83 1008.6
20260504004730 9 238 1.6 1.6 0.00 0.00 0.00 83 1008.4
20260504004227 9 208 1.6 3.2 0.00 0.00 0.00 84 1008.5
20260504003723 10 237 1.6 1.6 0.00 0.00 0.00 84 1008.7
20260504003220 10 242 1.6 3.2 0.00 0.00 0.00 82 1008.9
20260504002717 10 266 3.2 3.2 0.00 0.00 0.00 80 1009.2
20260504002214 10 269 3.2 4.8 0.00 0.00 0.00 79 1008.9
20260504001712 10 244 1.6 1.6 0.00 0.00 0.00 75 1009.0
20260504001209 10 290 4.8 6.4 0.00 0.00 0.00 73 1009.0
20260504000705 10 224 3.2 4.8 0.00 0.00 0.00 71 1008.6
20260504000204 11 261 6.4 6.4 0.00 0.00 0.00 71 1008.5
20260503235700 10 252 6.4 9.7 0.00 0.00 0.00 71 1008.5
20260503235157 10 284 4.8 4.8 0.00 0.00 0.00 73 1008.6
20260503234655 10 315 6.4 12.9 0.00 0.00 0.00 73 1008.8
20260503234153 11 205 11.3 24.1 0.00 0.00 0.00 69 1008.7
20260503233649 11 241 9.7 12.9 0.00 0.00 0.00 63 1008.7
20260503233145 12 220 20.9 37.0 0.00 0.00 0.00 61 1008.6
20260503232642 12 229 4.8 9.7 0.00 0.00 0.00 55 1008.5
20260503232139 12 215 8.0 16.1 0.00 0.00 0.00 54 1008.3
20260503231638 12 244 3.2 4.8 0.00 0.00 0.00 52 1008.4
20260503231134 12 254 6.4 6.4 0.00 0.00 0.00 51 1008.3
20260503230631 12 231 6.4 6.4 0.00 0.00 0.00 51 1008.1
20260503230128 12 279 8.0 9.7 0.00 0.00 0.00 50 1008.1
20260503225625 13 246 6.4 9.7 0.00 0.00 0.00 48 1007.9
20260503225125 13 235 11.3 12.9 0.00 0.00 0.00 48 1008.0
20260503224622 13 229 14.5 20.9 0.00 0.00 0.00 47 1007.9
20260503224120 13 223 17.7 20.9 0.00 0.00 0.00 45 1008.0
20260503223618 13 239 16.1 24.1 0.00 0.00 0.00 44 1007.9
20260503223114 13 235 17.7 22.5 0.00 0.00 0.00 45 1007.7
20260503222612 12 236 3.2 3.2 0.00 0.00 0.00 45 1007.8
20260503222109 11 199 4.8 4.8 0.00 0.00 0.00 55 1007.9
20260503221607 11 235 1.6 1.6 0.00 0.00 0.00 56 1007.7
20260503221104 11 172 3.2 4.8 0.00 0.00 0.00 59 1007.8
20260503220601 11 261 1.6 1.6 0.00 0.00 0.00 58 1007.7
20260503220058 11 280 3.2 4.8 0.00 0.00 0.00 56 1008.3
20260503215555 10 300 3.2 3.2 0.00 0.00 0.00 55 1008.4
20260503215051 11 276 3.2 3.2 0.00 0.00 0.00 56 1008.5
20260503214550 11 273 1.6 1.6 0.00 0.00 0.00 52 1008.6
20260503214046 11 307 4.8 4.8 0.00 0.00 0.00 52 1008.7
20260503213545 12 304 6.4 9.7 0.00 0.00 0.00 51 1008.6
20260503213041 12 308 8.0 11.3 0.00 0.00 0.00 47 1008.3
20260503212538 13 290 3.2 4.8 0.00 0.00 0.00 47 1008.3
20260503212036 13 278 6.4 6.4 0.00 0.00 0.00 47 1008.2
20260503211533 13 273 3.2 4.8 0.00 0.00 0.00 45 1008.0
20260503211028 13 260 3.2 4.8 0.00 0.00 0.00 46 1007.8
20260503210525 13 272 4.8 4.8 0.00 0.00 0.00 44 1007.8
20260503210021 13 248 4.8 6.4 0.00 0.00 0.00 47 1007.9
20260503205518 13 287 4.8 4.8 0.00 0.00 0.00 44 1008.2
20260503205014 13 276 4.8 6.4 0.00 0.00 0.00 44 1008.1
20260503204511 14 265 4.8 4.8 0.00 0.00 0.00 44 1008.1
20260503204008 13 235 4.8 4.8 0.00 0.00 0.00 42 1008.2
20260503203505 13 318 8.0 9.7 0.00 0.00 0.00 45 1008.2
20260503203002 13 270 6.4 9.7 0.00 0.00 0.00 43 1008.2
20260503202500 13 290 4.8 4.8 0.00 0.00 0.00 45 1008.3
20260503201958 13 289 8.0 9.7 0.00 0.00 0.00 42 1008.3
20260503201455 13 274 3.2 3.2 0.00 0.00 0.00 48 1008.5
20260503200953 14 313 6.4 6.4 0.00 0.00 0.00 42 1008.5
20260503200449 13 324 8.0 11.3 0.00 0.00 0.00 41 1008.5
20260503195946 13 353 9.7 12.9 0.00 0.00 0.00 44 1008.6
20260503195443 13 287 6.4 9.7 0.00 0.00 0.00 44 1008.8
20260503194939 13 255 8.0 11.3 0.00 0.00 0.00 44 1008.6
20260503194437 13 314 6.4 9.7 0.00 0.00 0.00 45 1009.0
20260503193932 13 265 3.2 3.2 0.00 0.00 0.00 48 1009.0
20260503193427 13 286 3.2 4.8 0.00 0.00 0.00 46 1009.2
20260503192923 13 267 8.0 12.9 0.00 0.00 0.00 44 1009.6
20260503192420 13 273 11.3 14.5 0.00 0.00 0.00 44 1009.5
20260503191915 13 305 8.0 12.9 0.00 0.00 0.00 45 1009.6
20260503191414 12 355 9.7 12.9 0.00 0.00 0.00 47 1009.7
20260503190909 12 261 8.0 11.3 0.00 0.00 0.00 47 1009.9
20260503190407 12 248 4.8 4.8 0.00 0.00 0.00 54 1009.8
20260503185903 11 335 3.2 4.8 0.00 0.00 0.00 53 1009.9
20260503185400 11 249 3.2 3.2 0.00 0.00 0.00 54 1010.1
20260503184859 11 285 1.6 3.2 0.00 0.00 0.00 51 1010.4
20260503184356 11 315 3.2 3.2 0.00 0.00 0.00 54 1010.3
20260503183852 10 28 6.4 6.4 0.00 0.00 0.00 57 1010.6
20260503183349 10 281 3.2 4.8 0.00 0.00 0.00 58 1010.6
20260503182846 9 349 6.4 6.4 0.00 0.00 0.00 60 1010.6
20260503182345 9 299 3.2 3.2 0.00 0.00 0.00 57 1010.7
20260503181842 10 310 4.8 4.8 0.00 0.00 0.00 59 1010.5
20260503181339 10 328 6.4 6.4 0.00 0.00 0.00 59 1010.6
20260503180836 10 352 6.4 9.7 0.00 0.00 0.00 60 1010.6
20260503180334 10 267 4.8 6.4 0.00 0.00 0.00 56 1010.8
20260503175830 10 326 9.7 11.3 0.00 0.00 0.00 58 1010.9
20260503175328 10 340 9.7 11.3 0.00 0.00 0.00 57 1010.7
20260503174823 10 354 8.0 9.7 0.00 0.00 0.00 58 1010.8
20260503174322 11 284 6.4 6.4 0.00 0.00 0.00 54 1011.0
20260503173817 10 336 9.7 12.9 0.00 0.00 0.00 60 1011.0
20260503173313 10 348 9.7 12.9 0.00 0.00 0.00 57 1011.2
20260503172810 10 282 6.4 6.4 0.00 0.00 0.00 57 1011.0
20260503172308 10 296 4.8 4.8 0.00 0.00 0.00 59 1011.1
20260503171803 10 296 6.4 11.3 0.00 0.00 0.00 56 1011.2
20260503171301 11 302 6.4 6.4 0.00 0.00 0.00 54 1011.2
20260503170758 11 301 8.0 9.7 0.00 0.00 0.00 53 1011.1
20260503170254 11 289 11.3 14.5 0.00 0.00 0.00 49 1011.0
20260503160217 11 319 4.8 4.8 0.00 0.00 0.00 49 1011.6
20260503150647 10 334 8.0 9.7 0.00 0.00 0.00 50 1012.1
20260503150143 10 7 6.4 6.4 0.00 0.00 0.00 49 1012.2
20260503140107 9 284 4.8 6.4 0.00 0.00 0.00 48 1012.8
20260503131036 8 288 9.7 11.3 0.00 0.00 0.00 47 1013.3
20260503130533 8 281 8.0 9.7 0.00 0.00 0.00 49 1013.1
20260503110424 3 273 1.6 3.2 0.00 0.00 0.00 74 1013.0
20260503090321 2 235 1.6 1.6 0.00 0.00 0.00 81 1012.4
20260503081248 3 235 1.6 3.2 0.00 0.00 0.00 79 1012.8
20260503080744 3 243 3.2 3.2 0.00 0.00 0.00 79 1012.8
20260503080242 3 228 3.2 3.2 0.00 0.00 0.00 79 1012.7
20260503072718 3 230 3.2 3.2 0.00 0.00 0.00 79 1012.8
20260503072215 2 234 1.6 3.2 0.00 0.00 0.00 80 1012.9
20260503071711 2 238 0.0 0.0 0.00 0.00 0.00 81 1012.9
20260503071209 3 235 0.0 0.0 0.00 0.00 0.00 80 1012.7
20260503070705 3 237 0.0 0.0 0.00 0.00 0.00 79 1012.8
20260503070203 3 231 0.0 0.0 0.00 0.00 0.00 77 1012.8
20260503060127 5 241 0.0 1.6 0.00 0.00 0.00 74 1012.9
20260503055119 5 239 1.6 1.6 0.00 0.00 0.00 73 1012.9
20260503054615 5 218 4.8 4.8 0.00 0.00 0.00 71 1013.0
20260503054112 5 240 1.6 3.2 0.00 0.00 0.00 71 1013.2